Location: Gro�sch�nbrunn
(49.5760°N, 11.8868°E)
Time: 01:42:49
(UTC+00:00)

IGS 5A - Pass Details

Date: 18 September 2020
Orbit: 583 x 588 km, 97.6° (Epoch: 09 October)

Event Time Altitude Azimuth Distance (km) Brightness Sun altitude
Exits shadow 19:37:08 38° 45° (NE) 899 4.2 -22.2°
Drops below altitude 10° 19:40:25 10° 360° (N) 1,919 6.5 -22.6°
Sets 19:42:40 0° 353° (N) 2,823 7.5 -22.9°
